Regional Weather Roundup
Issued by NWS

Home | Current Version | Previous Version | Graphics & Text | Print | Product List | Glossary On
Versions: 1 2 3 4 5 6 7 8 9 10 11 12 13 14 15 16 17 18 19 20 21 22 23 24 25 26 27 28 29 30 31 32 33 34 35 36 37 38 39 40 41 42 43 44 45 46 47 48 49 50
000
ASUS43 KOAX 220102
RWRNE

WEATHER ROUNDUP FOR NEBRASKA
NATIONAL WEATHER SERVICE OMAHA NE
700 PM CST SUN DEC 21 2014

NOTES: SATELLITE DATA IS BEING USED TO AUGMENT CLOUD COVER ABOVE
       12000 FEET.
       "FAIR" INDICATES FEW OR NO CLOUDS BELOW 12,000 FEET WITH NO
       SIGNIFICANT WEATHER AND/OR OBSTRUCTIONS TO VISIBILITY.

  * THESE STATIONS DO NOT REPORT WEATHER SUCH AS RAIN...SNOW OR FOG.

NEZ001>004-019>022-054>056-220200-
NEBRASKA PANHANDLE

CITY           SKY/WX    TMP DP  RH WIND       PRES   REMARKS
SCOTTSBLUFF    MOCLDY    39  31  72 W6        29.50R WCI  35
ALLIANCE       MOCLDY    34  31  88 W8        29.48R WCI  27
CHADRON        CLOUDY    37  30  75 W9        29.47R WCI  30
SIDNEY         MOCLDY    38  30  73 W9        29.52R WCI  31
$$

NEZ057>060-069>072-079>082-220200-
SOUTHWEST NEBRASKA

CITY           SKY/WX    TMP DP  RH WIND       PRES   REMARKS
NORTH PLATTE   CLOUDY    36  31  82 SE5       29.51S WCI  32
IMPERIAL       CLOUDY    37  31  78 N3        29.51S
MCCOOK         CLOUDY    37  34  89 S6        29.54S WCI  32
$$

NEZ005>010-023>029-035>040-094-220200-
NORTH CENTRAL NEBRASKA

CITY           SKY/WX    TMP DP  RH WIND       PRES   REMARKS
VALENTINE      CLOUDY    41  30  65 SW12      29.41R
BROKEN BOW     CLOUDY    38  35  89 S3        29.52R
$$

NEZ041-046>049-061>064-073>077-083>087-220200-
SOUTH CENTRAL NEBRASKA

CITY           SKY/WX    TMP DP  RH WIND       PRES   REMARKS
GRAND ISLAND   CLOUDY    40  37  89 S13       29.59F WCI  32
HASTINGS       CLOUDY    40  37  89 S14       29.57F WCI  32
KEARNEY *      CLOUDY    39  36  87 SE18      29.56F WCI  30
$$

NEZ011>018-030>034-042>045-220200-
NORTHEAST NEBRASKA

CITY           SKY/WX    TMP DP  RH WIND       PRES   REMARKS
NORFOLK        CLOUDY    41  39  93 S14       29.59F
BLAIR          CLOUDY    42  40  92 S17       29.68S FOG
COLUMBUS *     CLOUDY    41  36  81 S13G20    29.63F
TEKAMAH        LGT RAIN  41  39  93 S16       29.68F FOG
$$

NEZ050>053-065>068-078-088>093-220200-
SOUTHEAST NEBRASKA

CITY           SKY/WX    TMP DP  RH WIND       PRES   REMARKS
LINCOLN        CLOUDY    43  40  89 S13       29.69S
OMAHA EPPLEY   DRIZZLE   42  40  92 S15       29.72S FOG
FALLS CITY     CLOUDY    42  40  92 SE13      29.74F FOG
$$

NEZ044-045-051>053-067-220200-
OMAHA AREA

CITY           SKY/WX    TMP DP  RH WIND       PRES   REMARKS
OMAHA EPPLEY   DRIZZLE   42  40  92 S15       29.72S FOG
BLAIR          CLOUDY    42  40  92 S17       29.68S FOG
OFFUTT AFB     CLOUDY    42  40  95 S12       29.71R
$$



USA.gov is the U.S. government's official web portal to all federal, state and local government web resources and services.